Time,TemperatureF,DewpointF,PressureIn,WindDirection,WindDirectionDegrees,WindSpeedMPH,WindSpeedGustMPH,Humidity,HourlyPrecipIn,Conditions,Clouds,dailyrainin,SolarRadiationWatts/m^2,SoftwareType,DateUTC
2013-02-22 11:45:00,35.7,33.9,29.90,SSW,210,2.0,9.0,93,0.00,,,0.00,42,Wunderground v.1.15,2013-02-22 19:45:00,
2013-02-22 11:50:00,35.7,33.9,29.90,SE,133,3.0,9.0,93,0.00,,,0.00,44,Wunderground v.1.15,2013-02-22 19:50:00,
2013-02-22 11:55:00,35.8,34.0,29.90,South,170,3.0,9.0,93,0.00,,,0.00,39,Wunderground v.1.15,2013-02-22 19:55:00,
2013-02-22 12:05:00,35.8,34.0,29.89,SW,235,3.0,4.0,93,0.00,,,0.00,42,Wunderground v.1.15,2013-02-22 20:05:00,
2013-02-22 12:15:00,35.9,34.1,29.88,SSW,205,3.0,8.0,93,0.00,,,0.00,47,Wunderground v.1.15,2013-02-22 20:15:00,
2013-02-22 12:25:00,36.0,34.2,29.88,SSE,165,4.0,8.0,93,0.00,,,0.00,69,Wunderground v.1.15,2013-02-22 20:25:00,
2013-02-22 12:35:00,36.1,34.3,29.87,SSE,148,3.0,8.0,93,0.00,,,0.00,56,Wunderground v.1.15,2013-02-22 20:35:00,
2013-02-22 12:40:00,36.0,34.4,29.87,South,186,3.0,12.0,94,0.00,,,0.00,54,Wunderground v.1.15,2013-02-22 20:40:00,
2013-02-22 12:49:00,35.7,34.1,29.86,South,180,4.0,12.0,94,0.00,,,0.00,56,Wunderground v.1.15,2013-02-22 20:49:00,
2013-02-22 12:55:00,35.6,34.0,29.85,South,181,4.0,12.0,94,0.00,,,0.00,62,Wunderground v.1.15,2013-02-22 20:55:00,
2013-02-22 13:05:00,35.5,34.2,29.84,SSW,197,2.0,12.0,95,0.00,,,0.00,58,Wunderground v.1.15,2013-02-22 21:05:00,
2013-02-22 13:10:00,35.4,34.1,29.84,SE,135,2.0,9.0,95,0.00,,,0.00,56,Wunderground v.1.15,2013-02-22 21:10:00,
2013-02-22 13:20:00,35.2,33.9,29.84,SSW,209,3.0,3.0,95,0.00,,,0.00,51,Wunderground v.1.15,2013-02-22 21:20:00,
2013-02-22 13:30:00,34.9,33.6,29.83,SW,234,2.0,9.0,95,0.00,,,0.00,76,Wunderground v.1.15,2013-02-22 21:30:00,
2013-02-22 13:39:00,34.5,33.2,29.83,SSE,161,2.0,2.0,95,0.00,,,0.00,46,Wunderground v.1.15,2013-02-22 21:39:00,
2013-02-22 13:44:00,34.3,33.3,29.82,South,175,1.0,9.0,96,0.00,,,0.00,40,Wunderground v.1.15,2013-02-22 21:44:00,
2013-02-22 13:49:00,34.1,33.1,29.82,SSW,194,1.0,9.0,96,0.00,,,0.00,46,Wunderground v.1.15,2013-02-22 21:49:00,
2013-02-22 13:54:00,33.9,32.9,29.82,SSE,152,2.0,9.0,96,0.00,,,0.00,46,Wunderground v.1.15,2013-02-22 21:54:00,
2013-02-22 14:05:00,33.7,32.7,29.81,SSE,158,1.0,9.0,96,0.00,,,0.00,49,Wunderground v.1.15,2013-02-22 22:05:00,
2013-02-22 14:15:00,33.7,32.9,29.80,SSE,165,2.0,5.0,97,0.00,,,0.00,56,Wunderground v.1.15,2013-02-22 22:15:00,
2013-02-22 14:25:00,33.8,33.0,29.80,SSW,211,2.0,5.0,97,0.24,,,0.12,51,Wunderground v.1.15,2013-02-22 22:25:00,
2013-02-22 14:29:00,33.9,33.1,29.80,South,181,3.0,3.0,97,0.08,,,0.12,49,Wunderground v.1.15,2013-02-22 22:29:00,
2013-02-22 14:39:00,33.9,33.1,29.79,South,186,1.0,7.0,97,0.04,,,0.13,42,Wunderground v.1.15,2013-02-22 22:39:00,
2013-02-22 14:49:00,33.9,33.1,29.79,South,181,1.0,7.0,97,0.04,,,0.13,39,Wunderground v.1.15,2013-02-22 22:49:00,
2013-02-22 14:59:00,33.9,33.1,29.79,WSW,238,2.0,7.0,97,0.00,,,0.13,46,Wunderground v.1.15,2013-02-22 22:59:00,
2013-02-22 15:09:00,34.1,33.3,29.79,South,182,2.0,9.0,97,0.00,,,0.13,37,Wunderground v.1.15,2013-02-22 23:09:00,
2013-02-22 15:19:00,34.1,33.3,29.78,SSE,156,3.0,3.0,97,0.00,,,0.13,28,Wunderground v.1.15,2013-02-22 23:19:00,
2013-02-22 15:29:00,34.1,33.3,29.78,SSW,204,3.0,9.0,97,0.00,,,0.13,26,Wunderground v.1.15,2013-02-22 23:29:00,
2013-02-22 15:34:00,34.1,33.3,29.78,WSW,238,2.0,9.0,97,0.00,,,0.13,28,Wunderground v.1.15,2013-02-22 23:34:00,
2013-02-22 15:39:00,34.1,33.3,29.78,SSW,210,2.0,2.0,97,0.00,,,0.13,21,Wunderground v.1.15,2013-02-22 23:39:00,
2013-02-22 15:44:00,34.2,33.4,29.77,South,190,2.0,8.0,97,0.00,,,0.13,25,Wunderground v.1.15,2013-02-22 23:44:00,
2013-02-22 15:49:00,34.2,33.4,29.76,South,185,2.0,8.0,97,0.00,,,0.13,30,Wunderground v.1.15,2013-02-22 23:49:00,
2013-02-22 15:54:00,34.2,33.4,29.76,SSE,157,3.0,8.0,97,0.00,,,0.13,26,Wunderground v.1.15,2013-02-22 23:54:00,
2013-02-22 15:59:00,34.2,33.4,29.75,SSW,202,3.0,3.0,97,0.00,,,0.13,25,Wunderground v.1.15,2013-02-22 23:59:00,
2013-02-22 16:04:00,34.2,33.4,29.75,South,186,3.0,4.0,97,0.00,,,0.13,25,Wunderground v.1.15,2013-02-23 00:04:00,
2013-02-22 16:14:00,34.4,33.6,29.75,SW,215,2.0,7.0,97,0.00,,,0.13,12,Wunderground v.1.15,2013-02-23 00:14:00,
2013-02-22 16:19:00,34.5,33.7,29.75,SW,215,3.0,3.0,97,0.00,,,0.13,11,Wunderground v.1.15,2013-02-23 00:19:00,
2013-02-22 16:24:00,34.6,33.8,29.75,South,184,3.0,7.0,97,0.00,,,0.13,9,Wunderground v.1.15,2013-02-23 00:24:00,
2013-02-22 16:29:00,34.7,33.9,29.75,SSW,201,3.0,3.0,97,0.00,,,0.13,7,Wunderground v.1.15,2013-02-23 00:29:00,
2013-02-22 16:34:00,34.8,34.0,29.75,South,171,3.0,7.0,97,0.00,,,0.13,5,Wunderground v.1.15,2013-02-23 00:34:00,
2013-02-22 16:39:00,34.8,34.0,29.74,SSW,213,3.0,11.0,97,0.00,,,0.13,5,Wunderground v.1.15,2013-02-23 00:39:00,
2013-02-22 16:49:00,34.9,34.1,29.74,SW,220,3.0,3.0,97,0.00,,,0.13,7,Wunderground v.1.15,2013-02-23 00:49:00,
2013-02-22 16:54:00,35.0,34.2,29.74,South,190,2.0,11.0,97,0.00,,,0.13,5,Wunderground v.1.15,2013-02-23 00:54:00,
2013-02-22 16:59:00,35.2,34.4,29.74,SSW,194,2.0,2.0,97,0.00,,,0.13,0,Wunderground v.1.15,2013-02-23 00:59:00,
2013-02-22 17:04:00,35.3,34.5,29.74,South,180,2.0,3.0,97,0.00,,,0.13,0,Wunderground v.1.15,2013-02-23 01:04:00,
2013-02-22 17:09:00,35.4,34.6,29.73,SSW,200,2.0,9.0,97,0.00,,,0.13,0,Wunderground v.1.15,2013-02-23 01:09:00,
2013-02-22 17:19:00,35.7,34.9,29.73,WSW,242,2.0,9.0,97,0.00,,,0.13,0,Wunderground v.1.15,2013-02-23 01:19:00,
2013-02-22 17:24:00,35.8,35.0,29.73,SW,225,2.0,9.0,97,0.00,,,0.13,0,Wunderground v.1.15,2013-02-23 01:24:00,
2013-02-22 17:29:00,36.0,35.2,29.72,SE,144,1.0,9.0,97,0.00,,,0.13,0,Wunderground v.1.15,2013-02-23 01:29:00,
2013-02-22 17:34:00,36.4,35.6,29.72,SSE,165,1.0,9.0,97,0.00,,,0.13,0,Wunderground v.1.15,2013-02-23 01:34:00,
2013-02-22 17:40:00,36.9,36.4,29.72,SW,225,2.0,8.0,98,0.00,,,0.13,0,Wunderground v.1.15,2013-02-23 01:40:00,
2013-02-22 17:49:00,38.3,37.3,29.72,SW,225,4.0,4.0,96,0.00,,,0.13,0,Wunderground v.1.15,2013-02-23 01:49:00,
2013-02-22 17:54:00,38.8,37.5,29.72,SW,233,5.0,7.0,95,0.00,,,0.13,0,Wunderground v.1.15,2013-02-23 01:54:00,
2013-02-22 17:59:00,39.1,37.5,29.72,South,187,5.0,5.0,94,0.00,,,0.13,0,Wunderground v.1.15,2013-02-23 01:59:00,
2013-02-22 18:04:00,39.3,37.4,29.71,SSE,152,4.0,8.0,93,0.00,,,0.13,0,Wunderground v.1.15,2013-02-23 02:04:00,
2013-02-22 18:09:00,39.4,37.5,29.72,South,182,4.0,13.0,93,0.00,,,0.13,0,Wunderground v.1.15,2013-02-23 02:09:00,
2013-02-22 18:14:00,39.5,37.4,29.72,South,182,4.0,13.0,92,0.00,,,0.13,0,Wunderground v.1.15,2013-02-23 02:14:00,
2013-02-22 18:24:00,39.6,37.5,29.72,SW,227,5.0,13.0,92,0.00,,,0.13,0,Wunderground v.1.15,2013-02-23 02:24:00,
2013-02-22 18:29:00,39.6,37.5,29.72,South,186,4.0,4.0,92,0.00,,,0.13,0,Wunderground v.1.15,2013-02-23 02:29:00,
2013-02-22 18:34:00,39.6,37.5,29.71,SW,228,4.0,13.0,92,0.00,,,0.13,0,Wunderground v.1.15,2013-02-23 02:34:00,
2013-02-22 18:39:00,39.5,37.4,29.71,SW,227,4.0,13.0,92,0.00,,,0.13,0,Wunderground v.1.15,2013-02-23 02:39:00,
2013-02-22 18:44:00,39.5,37.4,29.71,WSW,258,4.0,13.0,92,0.00,,,0.13,0,Wunderground v.1.15,2013-02-23 02:44:00,
2013-02-22 18:54:00,39.5,37.4,29.70,SSE,166,5.0,5.0,92,0.00,,,0.13,0,Wunderground v.1.15,2013-02-23 02:54:00,
2013-02-22 18:59:00,39.5,37.4,29.70,SW,236,5.0,13.0,92,0.00,,,0.13,0,Wunderground v.1.15,2013-02-23 02:59:00,
2013-02-22 19:04:00,39.6,37.2,29.70,SW,218,5.0,13.0,91,0.00,,,0.14,0,Wunderground v.1.15,2013-02-23 03:04:00,